Погода в Добровольске

Россия / Калининградская область     54°46′11″N   22°30′14″E
темп.,
°C
ветер,
м/с
пор.,
м/с
влажн.,
%
обл.,
%
осадки,
мм/ч
давл.,
гПа
погр.,
м
12 апреля, пн
пн1223:00+12ююв6156499 0.0 1018518
02:00+12ююв61364100 0.0 1018519
05:00+10ююв51267100 0.0 1018405
08:00+10ююв51269100 0.0 1018442
11:00+13ююв51062100 0.0 1018814
14:00+11ю3972100 0.3 1018538
17:00+11ю2674100 0.0 1017294
20:00+5зсз5892100 0.1 1019291
13 апреля, вт
вт1323:00+4сз61090100 0.0 1021499
02:00+3сз5994100 0.4 1022577
05:00+4зсз3889100 0.0 1023545
08:00+5сз4877100 0.0 1024538
11:00+7сз5654100 0.0 1025957
14:00+8сз5548100 0.0 10251248
17:00+7сз5648100 0.0 10241131
20:00+5сз4764100 0.0 1025396
14 апреля, ср
ср1423:00+4сз3777100 0.0 1024350
02:00+3сз3685100 0.0 1023334
05:00+3сз368999 0.0 1023296
08:00+4ссз3575100 0.0 1022459
11:00+7с355899 0.0 10221007
14:00+9с4646100 0.0 10211864
17:00+9ссв4650100 0.0 10201742
20:00+7св3761100 0.0 1021219
15 апреля, чт
чт1523:00+5с4968100 0.0 1021579
02:00+4ссв51068100 0.0 1021570
05:00+3ссв61383100 0.1 1020797
08:00+3ссв61294100 0.6 1020689
11:00+5св61288100 0.4 1020582
14:00+6св71286100 1.2 1021593
17:00+7св51286100 0.5 1020663
20:00+6св61281100 0.8 1021473
16 апреля, пт
пт1623:00+6св41181100 0.0 1021427
02:00+6св51278100 0.1 1021454
05:00+4св51279100 0.0 1022451
08:00+4св51277100 0.0 1022497
11:00+6св51276100 0.1 1023654
14:00+8св41076100 0.2 1023717
17:00+10всв51071100 0.0 1024892
20:00+8всв51271100 0.0 1025935